Tracy, MN

3:14 AM CST on February 21, 2017 (GMT -0600)
Tracy

Weather History for KTKC - January, 2014

Change the Weather History Date:

Monday, January 13, 2014

  Actual Average (KMML) Record (KMML)
Temperature  
Mean Temperature 30 °F -  
Max Temperature 36 °F 21 °F 52 °F (1987)
Min Temperature 24 °F 3 °F -21 °F (1977)
Degree Days  
Heating Degree Days 35    
Moisture  
Dew Point 25 °F    
Average Humidity 77    
Maximum Humidity 85    
Minimum Humidity 66    
Precipitation  
Precipitation 0.02 in - - ()
Sea Level Pressure  
Sea Level Pressure 29.62 in    
Wind  
Wind Speed 10 mph (West)    
Max Wind Speed 23 mph    
Max Gust Speed 31 mph    
Visibility 10 miles    
Events Rain    
Averages and records for this station are not official NWS values.
T = Trace of Precipitation, MM = Missing Value Source: NWS Daily Summary

Daily Weather History Graph

Daily Weather History Graph

Search for Another Location

Airport or City:

Trip Planner

Search our weather history database for the weather conditions in past years. The results will help you decide how hot, cold, wet, or windy it might be!

Date:

Astronomy

Jan. 13, 2014 Rise Set
Actual Time 7:55 AM CST 5:07 PM CST
Civil Twilight 7:23 AM CST 5:39 PM CST
Nautical Twilight 6:47 AM CST 6:15 PM CST
Astronomical Twilight 6:12 AM CST 6:50 PM CST
Moon 3:23 PM CST (1/13) 5:44 AM CST (1/13)
Length of Visible Light 10h 16m
Length of Day
9h 11m
Waxing Gibbous, 95% of the Moon is Illuminated
Jan 13
Waxing Gibbous
Jan 15
Full
Jan 23
Last Quarter
Jan 30
New
Feb 6
First Quarter

Hourly Weather History & Observations

Time (CST) Temp. Windchill Dew Point Humidity Pressure Visibility Wind Dir Wind Speed Gust Speed Precip Events Conditions
12:17 AM 36.5 °F 30.3 °F 29.5 °F 76% 29.55 in 10.0 mi West 8.1 mph - N/A   Clear
12:37 AM 36.1 °F 28.2 °F 29.3 °F 76% 29.56 in 10.0 mi WNW 11.5 mph 18.4 mph N/A   Clear
12:58 AM 35.6 °F 27.1 °F 29.3 °F 78% 29.57 in 10.0 mi WNW 12.7 mph 19.6 mph N/A   Clear
1:18 AM 35.6 °F 25.9 °F 29.3 °F 78% 29.57 in 10.0 mi NW 16.1 mph 19.6 mph N/A   Clear
1:38 AM 34.7 °F 24.3 °F 29.3 °F 81% 29.58 in 10.0 mi NW 17.3 mph - N/A   Clear
1:57 AM 34.2 °F 23.6 °F 29.3 °F 82% 29.59 in 10.0 mi NW 17.3 mph - N/A   Clear
2:18 AM 34.0 °F 22.4 °F 29.3 °F 83% 29.60 in 10.0 mi NNW 20.7 mph 26.5 mph N/A   Scattered Clouds
2:38 AM 33.8 °F 22.5 °F 29.3 °F 84% 29.62 in 10.0 mi NW 19.6 mph 25.3 mph N/A   Overcast
2:58 AM 32.9 °F 20.4 °F 28.6 °F 84% 29.63 in 10.0 mi NNW 23.0 mph 29.9 mph N/A   Overcast
3:17 AM 32.4 °F 21.3 °F 28.2 °F 85% 29.63 in 10.0 mi NNW 17.3 mph 27.6 mph N/A   Overcast
3:38 AM 32.0 °F 19.5 °F 28.0 °F 85% 29.64 in 10.0 mi NNW 21.9 mph 31.1 mph N/A   Overcast
3:57 AM 32.0 °F 19.5 °F 27.5 °F 83% 29.65 in 10.0 mi NNW 21.9 mph 28.8 mph N/A   Overcast
4:18 AM 31.8 °F 21.8 °F 27.0 °F 82% 29.65 in 10.0 mi NNW 13.8 mph 21.9 mph N/A   Overcast
4:37 AM 31.6 °F 19.7 °F 26.8 °F 82% 29.66 in 10.0 mi NW 19.6 mph - N/A   Overcast
4:58 AM 30.9 °F 19.4 °F 24.6 °F 77% 29.66 in 10.0 mi NW 17.3 mph - N/A   Mostly Cloudy
5:17 AM 29.3 °F 18.2 °F 23.0 °F 77% 29.67 in 10.0 mi NW 15.0 mph - N/A   Scattered Clouds
5:38 AM 28.4 °F 18.0 °F 22.6 °F 79% 29.68 in 10.0 mi NW 12.7 mph - N/A   Clear
5:58 AM 27.9 °F 17.8 °F 22.1 °F 79% 29.68 in 10.0 mi NW 11.5 mph - N/A   Clear
6:18 AM 27.3 °F 18.4 °F 21.9 °F 80% 29.69 in 10.0 mi WNW 9.2 mph - N/A   Clear
6:38 AM 27.3 °F - 21.4 °F 78% 29.69 in 10.0 mi Calm Calm - N/A   Clear
6:57 AM 26.4 °F 17.3 °F 21.2 °F 81% 29.70 in 10.0 mi WNW 9.2 mph - N/A   Clear
7:18 AM 26.2 °F 15.2 °F 20.3 °F 78% 29.70 in 10.0 mi WNW 12.7 mph 18.4 mph N/A   Clear
7:37 AM 26.2 °F 16.4 °F 20.3 °F 78% 29.71 in 10.0 mi WNW 10.4 mph - N/A   Clear
7:58 AM 25.7 °F 18.0 °F 20.1 °F 79% 29.71 in 10.0 mi WNW 6.9 mph - N/A   Clear
8:17 AM 24.6 °F 16.7 °F 19.6 °F 81% 29.72 in 10.0 mi West 6.9 mph - N/A   Clear
8:37 AM 24.4 °F 20.1 °F 19.6 °F 82% 29.72 in 10.0 mi West 3.5 mph - N/A   Clear
8:57 AM 24.8 °F 20.5 °F 19.9 °F 82% 29.72 in 10.0 mi West 3.5 mph - N/A   Clear
9:18 AM 26.2 °F 17.1 °F 21.0 °F 81% 29.72 in 10.0 mi West 9.2 mph - N/A   Clear
9:37 AM 26.4 °F 18.0 °F 21.0 °F 80% 29.72 in 10.0 mi West 8.1 mph - N/A   Clear
9:58 AM 27.1 °F - 21.2 °F 78% 29.72 in 10.0 mi Calm Calm - N/A   Clear
10:18 AM 28.0 °F 20.8 °F 21.7 °F 77% 29.72 in 10.0 mi West 6.9 mph - N/A   Clear
10:37 AM 29.1 °F 22.1 °F 22.1 °F 75% 29.72 in 10.0 mi West 6.9 mph - N/A   Clear
10:57 AM 29.7 °F - 22.1 °F 73% 29.71 in 10.0 mi Calm Calm - N/A   Clear
11:17 AM 30.0 °F - 22.1 °F 72% 29.71 in 10.0 mi Calm Calm - N/A   Clear
11:38 AM 30.6 °F 24.7 °F 22.5 °F 72% 29.70 in 10.0 mi West 5.8 mph - N/A   Clear
11:57 AM 31.5 °F 25.8 °F 22.8 °F 70% 29.69 in 10.0 mi West 5.8 mph - N/A   Clear
12:17 PM 31.5 °F 24.2 °F 23.5 °F 73% 29.69 in 10.0 mi WSW 8.1 mph - N/A   Clear
12:38 PM 31.1 °F 25.4 °F 22.8 °F 71% 29.68 in 10.0 mi West 5.8 mph - N/A   Clear
12:58 PM 32.0 °F 25.6 °F 23.9 °F 72% 29.67 in 10.0 mi WSW 6.9 mph - N/A   Clear
1:18 PM 32.4 °F 27.9 °F 23.5 °F 70% 29.67 in 10.0 mi West 4.6 mph - N/A   Clear
1:38 PM 33.1 °F - 23.9 °F 69% 29.65 in 10.0 mi Calm Calm - N/A   Clear
1:57 PM 33.3 °F - 23.0 °F 66% 29.65 in 10.0 mi Calm Calm - N/A   Scattered Clouds
2:18 PM 32.9 °F - 24.3 °F 71% 29.64 in 10.0 mi Calm Calm - N/A   Mostly Cloudy
2:37 PM 34.0 °F - 23.9 °F 67% 29.64 in 10.0 mi Calm Calm - N/A   Overcast
2:58 PM 33.8 °F - 24.4 °F 69% 29.63 in 10.0 mi Calm Calm - N/A   Overcast
3:18 PM 33.1 °F 26.9 °F 24.8 °F 72% 29.64 in 10.0 mi SW 6.9 mph - N/A   Overcast
3:38 PM 32.9 °F 26.7 °F 25.3 °F 74% 29.64 in 10.0 mi SW 6.9 mph - N/A   Overcast
3:57 PM 32.5 °F 25.5 °F 24.8 °F 73% 29.63 in 10.0 mi SSW 8.1 mph - N/A   Overcast
4:17 PM 32.9 °F - 24.4 °F 71% 29.62 in 10.0 mi Calm Calm - N/A   Overcast
4:38 PM 32.5 °F - 24.8 °F 73% 29.62 in 10.0 mi Calm Calm - N/A   Overcast
4:58 PM 32.9 °F 28.5 °F 25.5 °F 74% 29.61 in 10.0 mi SSW 4.6 mph - N/A   Overcast
5:17 PM 32.5 °F 24.8 °F 26.1 °F 77% 29.60 in 10.0 mi SSW 9.2 mph - N/A   Overcast
5:38 PM 32.9 °F 25.9 °F 26.2 °F 76% 29.60 in 10.0 mi SSW 8.1 mph - N/A   Overcast
5:58 PM 33.3 °F 25.7 °F 26.6 °F 77% 29.59 in 10.0 mi SSW 9.2 mph - N/A   Overcast
6:18 PM 32.9 °F 27.5 °F 26.4 °F 77% 29.58 in 10.0 mi South 5.8 mph - N/A   Mostly Cloudy
6:37 PM 32.2 °F - 26.4 °F 79% 29.57 in 10.0 mi Calm Calm - N/A   Scattered Clouds
6:58 PM 32.0 °F - 26.1 °F 79% 29.56 in 10.0 mi Calm Calm - N/A   Clear
7:17 PM 32.4 °F 25.3 °F 25.5 °F 76% 29.56 in 10.0 mi South 8.1 mph - N/A   Clear
7:37 PM 32.4 °F 26.9 °F 25.2 °F 75% 29.55 in 10.0 mi South 5.8 mph - N/A   Clear
7:58 PM 32.4 °F 26.9 °F 24.8 °F 74% 29.53 in 10.0 mi South 5.8 mph - N/A   Clear
8:18 PM 32.5 °F 24.8 °F 25.3 °F 75% 29.53 in 10.0 mi SSW 9.2 mph - N/A   Clear
8:37 PM 33.3 °F 24.1 °F 25.7 °F 74% 29.51 in 10.0 mi SSW 12.7 mph - N/A   Scattered Clouds
8:57 PM 34.2 °F 24.8 °F 26.2 °F 73% 29.50 in 10.0 mi SSW 13.8 mph - N/A   Scattered Clouds
9:17 PM 34.5 °F 24.5 °F 26.4 °F 72% 29.49 in 10.0 mi SW 16.1 mph - N/A   Mostly Cloudy
9:38 PM 34.7 °F 24.7 °F 26.6 °F 72% 29.48 in 10.0 mi SSW 16.1 mph - N/A   Overcast
9:58 PM 34.7 °F 25.1 °F 27.1 °F 74% 29.47 in 10.0 mi SSW 15.0 mph - N/A   Overcast
10:18 PM 35.2 °F 26.6 °F 27.3 °F 73% 29.47 in 10.0 mi SW 12.7 mph - N/A   Overcast
10:38 PM 35.4 °F 26.8 °F 28.6 °F 76% 29.47 in 10.0 mi WSW 12.7 mph - N/A   Drizzle
10:57 PM 36.5 °F 28.7 °F 30.2 °F 78% 29.47 in 10.0 mi WSW 11.5 mph 16.1 mph N/A   Drizzle
11:18 PM 36.5 °F 30.3 °F 30.2 °F 78% 29.48 in 10.0 mi WSW 8.1 mph - N/A Rain Rain
11:38 PM 36.1 °F 29.9 °F 31.1 °F 82% 29.47 in 10.0 mi West 8.1 mph - N/A Rain Light Rain
11:58 PM 36.1 °F 31.4 °F 32.0 °F 85% 29.47 in 5.0 mi West 5.8 mph - 0.02 in Rain Rain